This is the latest recevied weather packets stored in our database for station/object DK9XR-14. If no packets are shown the sender has not sent any weather packets the latest 10 day(s).
| Time | Temp. | Humidity | Pressure | Rain* | Wind** | Luminosity | Snow |
|---|---|---|---|---|---|---|---|
| 1777884230 | 19.44° C | 47% | 1016.2 hPa | 0 mm | - | - | - |
| 1777883930 | 19.44° C | 46% | 1016.2 hPa | 0 mm | - | - | - |
| 1777883627 | 19.44° C | 46% | 1016.3 hPa | 0 mm | - | - | - |
| 1777883328 | 18.89° C | 48% | 1016.3 hPa | 0 mm | - | - | - |
| 1777883024 | 18.33° C | 49% | 1016.3 hPa | 0 mm | - | - | - |
| 1777882726 | 18.89° C | 48% | 1016.3 hPa | 0 mm | - | - | - |
| 1777882426 | 18.33° C | 50% | 1016.4 hPa | 0 mm | - | - | - |
| 1777882125 | 18.33° C | 50% | 1016.5 hPa | 0 mm | - | - | - |
| 1777881821 | 18.33° C | 49% | 1016.5 hPa | 0 mm | - | - | - |
| 1777881521 | 18.33° C | 50% | 1016.5 hPa | 0 mm | - | - | - |
| 1777881216 | 18.33° C | 49% | 1016.5 hPa | 0 mm | - | - | - |
| 1777880916 | 17.78° C | 49% | 1016.6 hPa | 0 mm | - | - | - |
| 1777880615 | 17.78° C | 50% | 1016.6 hPa | 0 mm | - | - | - |
| 1777880316 | 17.78° C | 52% | 1016.6 hPa | 0 mm | - | - | - |
| 1777880016 | 17.22° C | 55% | 1016.6 hPa | 0 mm | - | - | - |
| 1777879717 | 17.22° C | 56% | 1016.6 hPa | 0 mm | - | - | - |
| 1777879414 | 16.67° C | 57% | 1016.7 hPa | 0 mm | - | - | - |
| 1777879113 | 16.67° C | 55% | 1016.6 hPa | 0 mm | - | - | - |
| 1777878815 | 16.67° C | 57% | 1016.6 hPa | 0 mm | - | - | - |
| 1777878512 | 16.67° C | 58% | 1016.5 hPa | 0 mm | - | - | - |
| 1777878210 | 16.67° C | 59% | 1016.6 hPa | 0 mm | - | - | - |
| 1777877913 | 16.11° C | 60% | 1016.6 hPa | 0 mm | - | - | - |
| 1777877611 | 15.56° C | 60% | 1016.6 hPa | 0 mm | - | - | - |
| 1777877309 | 15.56° C | 61% | 1016.5 hPa | 0 mm | - | - | - |
| 1777877011 | 15° C | 62% | 1016.6 hPa | 0 mm | - | - | - |
* Rain latest hour (hover to see other rain measurements)
** Current wind speed in m/s (hover to see current wind gust speed)